Time,TemperatureF,DewpointF,PressureIn,WindDirection,WindDirectionDegrees,WindSpeedMPH,WindSpeedGustMPH,Humidity,HourlyPrecipIn,Conditions,Clouds,dailyrainin,SoftwareType,DateUTC
2013-07-22 00:11:00,73.0,72.0,29.83,SW,227,0.0,-999.0,96,-99.99,,,0.01,weatherlink.com 1.10,2013-07-22 04:11:00,
2013-07-22 00:26:00,73.2,72.0,29.82,SW,227,0.0,-999.0,97,-99.99,,,0.01,weatherlink.com 1.10,2013-07-22 04:26:00,
2013-07-22 00:41:00,73.1,72.0,29.82,SW,227,0.0,-999.0,97,-99.99,,,0.01,weatherlink.com 1.10,2013-07-22 04:41:00,
2013-07-22 00:56:00,72.9,72.0,29.82,SW,227,0.0,-999.0,96,-99.99,,,0.01,weatherlink.com 1.10,2013-07-22 04:56:00,
2013-07-22 01:11:00,72.6,71.0,29.82,SW,227,0.0,-999.0,96,-99.99,,,0.01,weatherlink.com 1.10,2013-07-22 05:11:00,
2013-07-22 01:26:00,72.6,72.0,29.81,SW,227,0.0,-999.0,97,-99.99,,,0.01,weatherlink.com 1.10,2013-07-22 05:26:00,
2013-07-22 01:41:00,72.5,72.0,29.80,SW,227,0.0,-999.0,97,-99.99,,,0.00,weatherlink.com 1.10,2013-07-22 05:41:00,
2013-07-22 01:56:00,72.4,72.0,29.80,SW,227,0.0,-999.0,97,-99.99,,,0.00,weatherlink.com 1.10,2013-07-22 05:56:00,
2013-07-22 02:11:00,72.1,71.0,29.80,SW,227,0.0,-999.0,97,-99.99,,,0.00,weatherlink.com 1.10,2013-07-22 06:11:00,
2013-07-22 02:26:00,72.2,71.0,29.79,SW,227,0.0,-999.0,97,-99.99,,,0.01,weatherlink.com 1.10,2013-07-22 06:26:00,
2013-07-22 02:41:00,72.4,72.0,29.80,SSW,196,4.0,-999.0,97,-99.99,,,0.04,weatherlink.com 1.10,2013-07-22 06:41:00,
2013-07-22 02:56:00,71.2,70.0,29.81,SSE,159,4.0,-999.0,96,-99.99,,,0.23,weatherlink.com 1.10,2013-07-22 06:56:00,
2013-07-22 03:11:00,70.7,70.0,29.81,SSW,209,5.0,-999.0,98,-99.99,,,0.43,weatherlink.com 1.10,2013-07-22 07:11:00,
2013-07-22 03:26:00,70.6,70.0,29.81,West,259,4.0,-999.0,98,-99.99,,,0.48,weatherlink.com 1.10,2013-07-22 07:26:00,
2013-07-22 03:41:00,70.3,70.0,29.80,West,259,0.0,-999.0,98,-99.99,,,0.50,weatherlink.com 1.10,2013-07-22 07:41:00,
2013-07-22 03:57:00,70.2,70.0,29.80,West,259,0.0,-999.0,98,-99.99,,,0.54,weatherlink.com 1.10,2013-07-22 07:57:00,
2013-07-22 04:12:00,70.3,70.0,29.80,West,259,3.0,-999.0,99,-99.99,,,0.57,weatherlink.com 1.10,2013-07-22 08:12:00,
2013-07-22 04:27:00,69.8,70.0,29.79,West,259,3.0,-999.0,99,-99.99,,,0.59,weatherlink.com 1.10,2013-07-22 08:27:00,
2013-07-22 04:42:00,69.4,69.0,29.79,West,259,0.0,-999.0,99,-99.99,,,0.61,weatherlink.com 1.10,2013-07-22 08:42:00,
2013-07-22 04:56:00,69.3,69.0,29.79,WNW,288,2.0,-999.0,99,-99.99,,,0.64,weatherlink.com 1.10,2013-07-22 08:56:00,
2013-07-22 05:12:00,69.4,69.0,29.79,WNW,302,1.0,-999.0,99,-99.99,,,0.66,weatherlink.com 1.10,2013-07-22 09:12:00,
2013-07-22 05:27:00,69.5,69.0,29.79,WNW,302,0.0,-999.0,99,-99.99,,,0.69,weatherlink.com 1.10,2013-07-22 09:27:00,
2013-07-22 05:42:00,69.3,69.0,29.79,WNW,302,0.0,-999.0,99,-99.99,,,0.71,weatherlink.com 1.10,2013-07-22 09:42:00,
2013-07-22 05:57:00,69.2,69.0,29.78,WNW,302,0.0,-999.0,99,-99.99,,,0.76,weatherlink.com 1.10,2013-07-22 09:57:00,
2013-07-22 06:12:00,68.8,69.0,29.78,NW,309,0.0,-999.0,99,-99.99,,,0.82,weatherlink.com 1.10,2013-07-22 10:12:00,
2013-07-22 06:27:00,68.3,68.0,29.75,ENE,61,1.0,-999.0,99,-99.99,,,0.87,weatherlink.com 1.10,2013-07-22 10:27:00,
2013-07-22 06:42:00,68.6,68.0,29.78,SW,234,2.0,-999.0,99,-99.99,,,0.91,weatherlink.com 1.10,2013-07-22 10:42:00,
2013-07-22 06:57:00,68.5,68.0,29.77,SW,234,2.0,-999.0,99,-99.99,,,0.92,weatherlink.com 1.10,2013-07-22 10:57:00,
2013-07-22 07:12:00,68.5,68.0,29.77,North,350,0.0,-999.0,99,-99.99,,,0.92,weatherlink.com 1.10,2013-07-22 11:12:00,
2013-07-22 07:27:00,68.5,68.0,29.77,North,350,1.0,-999.0,99,-99.99,,,0.92,weatherlink.com 1.10,2013-07-22 11:27:00,
2013-07-22 07:42:00,68.6,68.0,29.78,North,350,2.0,-999.0,99,-99.99,,,0.93,weatherlink.com 1.10,2013-07-22 11:42:00,
2013-07-22 07:57:00,68.6,69.0,29.78,North,355,1.0,-999.0,100,-99.99,,,0.93,weatherlink.com 1.10,2013-07-22 11:57:00,
2013-07-22 08:12:00,68.2,68.0,29.79,NE,45,5.0,-999.0,99,-99.99,,,0.93,weatherlink.com 1.10,2013-07-22 12:12:00,
2013-07-22 08:27:00,67.9,68.0,29.79,NE,41,4.0,-999.0,99,-99.99,,,0.93,weatherlink.com 1.10,2013-07-22 12:27:00,
2013-07-22 08:42:00,67.6,67.0,29.79,NE,43,2.0,-999.0,99,-99.99,,,0.93,weatherlink.com 1.10,2013-07-22 12:42:00,
2013-07-22 08:57:00,67.4,67.0,29.80,NE,42,4.0,-999.0,99,-99.99,,,0.93,weatherlink.com 1.10,2013-07-22 12:57:00,
2013-07-22 09:12:00,67.7,68.0,29.79,NE,46,3.0,-999.0,100,-99.99,,,0.93,weatherlink.com 1.10,2013-07-22 13:12:00,
2013-07-22 09:27:00,68.1,68.0,29.79,NE,43,3.0,-999.0,100,-99.99,,,0.93,weatherlink.com 1.10,2013-07-22 13:27:00,
2013-07-22 09:42:00,68.5,68.0,29.79,ENE,68,4.0,-999.0,99,-99.99,,,0.93,weatherlink.com 1.10,2013-07-22 13:42:00,
2013-07-22 09:57:00,69.4,69.0,29.79,NE,52,2.0,-999.0,99,-99.99,,,0.93,weatherlink.com 1.10,2013-07-22 13:57:00,
2013-07-22 10:12:00,70.1,70.0,29.78,NE,46,2.0,-999.0,98,-99.99,,,0.93,weatherlink.com 1.10,2013-07-22 14:12:00,
2013-07-22 10:27:00,70.9,70.0,29.78,NE,51,1.0,-999.0,96,-99.99,,,0.93,weatherlink.com 1.10,2013-07-22 14:27:00,
2013-07-22 10:42:00,72.0,70.0,29.78,East,92,4.0,-999.0,93,-99.99,,,0.93,weatherlink.com 1.10,2013-07-22 14:42:00,
2013-07-22 10:57:00,72.1,69.0,29.79,East,80,3.0,-999.0,91,-99.99,,,0.93,weatherlink.com 1.10,2013-07-22 14:57:00,
2013-07-22 11:12:00,72.3,70.0,29.79,East,93,5.0,-999.0,91,-99.99,,,0.93,weatherlink.com 1.10,2013-07-22 15:12:00,
2013-07-22 11:27:00,73.3,71.0,29.79,ENE,65,2.0,-999.0,91,-99.99,,,0.93,weatherlink.com 1.10,2013-07-22 15:27:00,
2013-07-22 11:42:00,73.4,69.0,29.79,NE,47,5.0,-999.0,87,-99.99,,,0.93,weatherlink.com 1.10,2013-07-22 15:42:00,
2013-07-22 11:57:00,73.9,71.0,29.79,NE,36,4.0,-999.0,89,-99.99,,,0.93,weatherlink.com 1.10,2013-07-22 15:57:00,
2013-07-22 12:12:00,75.2,71.0,29.79,ENE,72,0.0,-999.0,86,-99.99,,,0.93,weatherlink.com 1.10,2013-07-22 16:12:00,
2013-07-22 12:27:00,75.5,70.0,29.79,NE,54,0.0,-999.0,84,-99.99,,,0.93,weatherlink.com 1.10,2013-07-22 16:27:00,
2013-07-22 12:42:00,75.6,70.0,29.78,ESE,103,2.0,-999.0,83,-99.99,,,0.93,weatherlink.com 1.10,2013-07-22 16:42:00,
2013-07-22 12:57:00,76.1,70.0,29.79,ESE,103,0.0,-999.0,82,-99.99,,,0.93,weatherlink.com 1.10,2013-07-22 16:57:00,
2013-07-22 13:12:00,76.4,70.0,29.79,NE,36,0.0,-999.0,81,-99.99,,,0.93,weatherlink.com 1.10,2013-07-22 17:12:00,
2013-07-22 13:27:00,76.6,70.0,29.78,NE,44,1.0,-999.0,81,-99.99,,,0.93,weatherlink.com 1.10,2013-07-22 17:27:00,
2013-07-22 13:42:00,76.8,70.0,29.78,SE,138,0.0,-999.0,80,-99.99,,,0.93,weatherlink.com 1.10,2013-07-22 17:42:00,
2013-07-22 14:12:00,78.4,71.0,29.78,West,273,2.0,-999.0,78,-99.99,,,0.93,weatherlink.com 1.10,2013-07-22 18:12:00,
2013-07-22 14:27:00,79.2,71.0,29.77,ENE,60,0.0,-999.0,76,-99.99,,,0.93,weatherlink.com 1.10,2013-07-22 18:27:00,
2013-07-22 14:42:00,78.6,71.0,29.77,NNE,14,1.0,-999.0,77,-99.99,,,0.93,weatherlink.com 1.10,2013-07-22 18:42:00,
2013-07-22 14:58:00,79.1,71.0,29.77,West,259,3.0,-999.0,76,-99.99,,,0.93,weatherlink.com 1.10,2013-07-22 18:58:00,
2013-07-22 15:28:00,80.1,71.0,29.75,West,268,0.0,-999.0,74,-99.99,,,0.93,weatherlink.com 1.10,2013-07-22 19:28:00,
2013-07-22 15:43:00,79.9,71.0,29.75,North,360,1.0,-999.0,74,-99.99,,,0.93,weatherlink.com 1.10,2013-07-22 19:43:00,
2013-07-22 16:13:00,81.4,71.0,29.75,West,281,4.0,-999.0,71,-99.99,,,0.93,weatherlink.com 1.10,2013-07-22 20:13:00,
2013-07-22 16:28:00,81.3,71.0,29.75,NW,322,4.0,-999.0,71,-99.99,,,0.93,weatherlink.com 1.10,2013-07-22 20:28:00,
2013-07-22 16:43:00,82.2,72.0,29.75,NW,315,2.0,-999.0,70,-99.99,,,0.93,weatherlink.com 1.10,2013-07-22 20:43:00,
2013-07-22 16:58:00,81.1,73.0,29.75,NNW,346,3.0,-999.0,75,-99.99,,,0.93,weatherlink.com 1.10,2013-07-22 20:58:00,
2013-07-22 17:13:00,82.2,72.0,29.75,NW,312,4.0,-999.0,71,-99.99,,,0.93,weatherlink.com 1.10,2013-07-22 21:13:00,
2013-07-22 17:28:00,82.9,72.0,29.75,NNW,346,2.0,-999.0,70,-99.99,,,0.93,weatherlink.com 1.10,2013-07-22 21:28:00,
2013-07-22 17:42:00,83.0,72.0,29.75,WSW,255,4.0,-999.0,69,-99.99,,,0.93,weatherlink.com 1.10,2013-07-22 21:42:00,
2013-07-22 17:58:00,82.5,71.0,29.75,WNW,282,4.0,-999.0,69,-99.99,,,0.93,weatherlink.com 1.10,2013-07-22 21:58:00,
2013-07-22 18:13:00,82.8,71.0,29.74,SW,234,3.0,-999.0,68,-99.99,,,0.93,weatherlink.com 1.10,2013-07-22 22:13:00,
2013-07-22 18:28:00,82.4,72.0,29.74,WNW,303,1.0,-999.0,70,-99.99,,,0.93,weatherlink.com 1.10,2013-07-22 22:28:00,
2013-07-22 18:43:00,82.4,72.0,29.74,WNW,288,2.0,-999.0,70,-99.99,,,0.93,weatherlink.com 1.10,2013-07-22 22:43:00,
2013-07-22 18:58:00,82.5,72.0,29.73,West,280,3.0,-999.0,70,-99.99,,,0.93,weatherlink.com 1.10,2013-07-22 22:58:00,
2013-07-22 19:13:00,82.6,72.0,29.73,West,273,2.0,-999.0,70,-99.99,,,0.93,weatherlink.com 1.10,2013-07-22 23:13:00,
2013-07-22 19:28:00,82.4,71.0,29.73,West,269,0.0,-999.0,69,-99.99,,,0.93,weatherlink.com 1.10,2013-07-22 23:28:00,
2013-07-22 19:43:00,82.1,72.0,29.73,West,271,1.0,-999.0,71,-99.99,,,0.93,weatherlink.com 1.10,2013-07-22 23:43:00,
2013-07-22 19:58:00,81.9,72.0,29.73,West,267,0.0,-999.0,71,-99.99,,,0.93,weatherlink.com 1.10,2013-07-22 23:58:00,
2013-07-22 20:13:00,81.4,72.0,29.73,West,267,0.0,-999.0,73,-99.99,,,0.93,weatherlink.com 1.10,2013-07-23 00:13:00,
2013-07-22 20:28:00,80.9,72.0,29.73,West,267,1.0,-999.0,75,-99.99,,,0.93,weatherlink.com 1.10,2013-07-23 00:28:00,
2013-07-22 20:43:00,79.9,72.0,29.73,West,267,0.0,-999.0,77,-99.99,,,0.93,weatherlink.com 1.10,2013-07-23 00:43:00,
2013-07-22 20:58:00,78.2,72.0,29.73,West,267,0.0,-999.0,81,-99.99,,,0.93,weatherlink.com 1.10,2013-07-23 00:58:00,
2013-07-22 21:13:00,76.5,72.0,29.73,West,267,0.0,-999.0,85,-99.99,,,0.93,weatherlink.com 1.10,2013-07-23 01:13:00,
2013-07-22 21:28:00,75.6,72.0,29.73,West,267,0.0,-999.0,87,-99.99,,,0.93,weatherlink.com 1.10,2013-07-23 01:28:00,
2013-07-22 21:43:00,75.5,71.0,29.74,West,267,0.0,-999.0,87,-99.99,,,0.93,weatherlink.com 1.10,2013-07-23 01:43:00,
2013-07-22 21:58:00,74.9,71.0,29.75,West,267,0.0,-999.0,88,-99.99,,,0.93,weatherlink.com 1.10,2013-07-23 01:58:00,
2013-07-22 22:13:00,74.3,71.0,29.75,West,267,0.0,-999.0,89,-99.99,,,0.93,weatherlink.com 1.10,2013-07-23 02:13:00,
2013-07-22 22:28:00,73.6,71.0,29.75,West,267,0.0,-999.0,91,-99.99,,,0.93,weatherlink.com 1.10,2013-07-23 02:28:00,
2013-07-22 22:43:00,73.3,71.0,29.75,West,267,0.0,-999.0,92,-99.99,,,0.93,weatherlink.com 1.10,2013-07-23 02:43:00,
2013-07-22 22:58:00,72.7,71.0,29.75,West,267,0.0,-999.0,93,-99.99,,,0.93,weatherlink.com 1.10,2013-07-23 02:58:00,
2013-07-22 23:13:00,72.3,71.0,29.75,West,267,0.0,-999.0,94,-99.99,,,0.93,weatherlink.com 1.10,2013-07-23 03:13:00,
2013-07-22 23:28:00,71.9,70.0,29.75,West,267,0.0,-999.0,94,-99.99,,,0.93,weatherlink.com 1.10,2013-07-23 03:28:00,
2013-07-22 23:43:00,71.7,70.0,29.75,West,267,0.0,-999.0,94,-99.99,,,0.93,weatherlink.com 1.10,2013-07-23 03:43:00,
2013-07-22 23:58:00,71.4,70.0,29.75,West,267,0.0,-999.0,94,-99.99,,,0.93,weatherlink.com 1.10,2013-07-23 03:58:00,